Change the Weather History Date:

Sunday, March 24, 2013

  Actual Average Record
Temperature  
Mean Temperature 25 °F 42 °F  
Max Temperature 32 °F 55 °F 90 °F (1910)
Min Temperature 18 °F 30 °F 4 °F (1965)
Degree Days  
Heating Degree Days 40 23  
Month to date heating degree days 730 647  
Since 1 July heating degree days 5199 5408  
Cooling Degree Days 0 0  
Month to date cooling degree days 0 0  
Year to date cooling degree days 0 0  
Moisture  
Dew Point 17 °F    
Average Humidity 71    
Maximum Humidity 84    
Minimum Humidity 58    
Precipitation  
Precipitation T in 0.07 in 0.73 in (1901)
Month to date precipitation 1.06 1.29  
Year to date precipitation 2.19 2.50  
Snow  
Snow T in 0.10 in 4.30 in (1971)
Month to date snowfall 6.2 4.3  
Since 1 July snowfall 27.6 26.4  
Snow Depth 1.00 in    
Sea Level Pressure  
Sea Level Pressure 30.18 in    
Wind  
Wind Speed 20 mph (NNW)    
Max Wind Speed 31 mph    
Max Gust Speed 37 mph    
Visibility 9 miles    
Events Rain , Snow    
T = Trace of Precipitation, MM = Missing Value Source: NWS Daily Summary

Daily Weather History Graph

Daily Weather History Graph

Search for Another Location

Airport or City:

Trip Planner

Search our weather history database for the weather conditions in past years. The results will help you decide how hot, cold, wet, or windy it might be!

Date:

Astronomy

Mar. 24, 2013 Rise Set
Actual Time 7:29 AM CDT 7:49 PM CDT
Civil Twilight 7:02 AM CDT 8:17 PM CDT
Nautical Twilight 6:29 AM CDT 8:49 PM CDT
Astronomical Twilight 5:56 AM CDT 9:22 PM CDT
Moon 5:18 PM CDT (3/24) 5:41 AM CDT (3/24)
Length of Visible Light 13h 15m
Length of Day
12h 20m
Waxing Gibbous, 92% of the Moon is Illuminated
Mar 24
Waxing Gibbous
Mar 27
Full
Apr 2
Last Quarter
Apr 10
New
Apr 18
First Quarter

Hourly Weather History & Observations

Time (CDT) Temp. Windchill Dew Point Humidity Pressure Visibility Wind Dir Wind Speed Gust Speed Precip Events Conditions
12:08 AM 24.8 °F 11.1 °F 21.2 °F 86% 30.13 in 8.0 mi North 18.4 mph 27.6 mph 0.00 in Rain Light Freezing Rain
12:18 AM 24.8 °F 9.6 °F 19.4 °F 80% 30.13 in 4.0 mi North 23.0 mph 28.8 mph 0.00 in Snow Light Snow
12:39 AM 24.8 °F 10.0 °F 19.4 °F 80% 30.12 in 2.5 mi North 21.9 mph - 0.00 in Snow Light Snow
12:53 AM 24.1 °F 9.0 °F 19.9 °F 84% 30.19 in 2.0 mi North 21.9 mph 29.9 mph 0.00 in Snow Light Snow
1:04 AM 24.8 °F 8.4 °F 19.4 °F 80% 30.12 in 2.0 mi North 27.6 mph 32.2 mph 0.00 in Snow Light Snow
1:27 AM 24.8 °F 9.6 °F 19.4 °F 80% 30.12 in 3.0 mi North 23.0 mph 29.9 mph 0.00 in Snow Light Snow
1:53 AM 24.1 °F 8.3 °F 18.0 °F 77% 30.19 in 10.0 mi North 24.2 mph - 0.00 in Rain Light Freezing Rain
2:25 AM 24.8 °F 9.3 °F 17.6 °F 74% 30.13 in 10.0 mi North 24.2 mph - 0.00 in   Overcast
2:53 AM 23.0 °F 8.0 °F 17.1 °F 78% 30.20 in 10.0 mi North 20.7 mph 31.1 mph 0.00 in   Mostly Cloudy
3:53 AM 23.0 °F 8.0 °F 16.0 °F 74% 30.19 in 10.0 mi North 20.7 mph 28.8 mph N/A   Clear
4:53 AM 21.9 °F 6.2 °F 16.0 °F 78% 30.18 in 10.0 mi North 21.9 mph 27.6 mph N/A   Clear
5:53 AM 19.9 °F 7.3 °F 15.1 °F 81% 30.20 in 10.0 mi North 12.7 mph - N/A   Clear
6:53 AM 19.0 °F 5.6 °F 14.0 °F 81% 30.21 in 10.0 mi NNW 13.8 mph - N/A   Clear
7:53 AM 18.0 °F 5.4 °F 14.0 °F 84% 30.21 in 10.0 mi NNW 11.5 mph - N/A   Clear
8:53 AM 19.9 °F 6.2 °F 12.9 °F 74% 30.21 in 10.0 mi NNW 15.0 mph - N/A   Clear
9:53 AM 21.0 °F 5.4 °F 12.9 °F 71% 30.21 in 10.0 mi NNW 20.7 mph 26.5 mph N/A   Clear
10:53 AM 23.0 °F 7.2 °F 12.9 °F 65% 30.21 in 10.0 mi NNW 23.0 mph - N/A   Clear
11:53 AM 26.1 °F 11.6 °F 15.1 °F 63% 30.19 in 10.0 mi North 21.9 mph 31.1 mph N/A   Clear
12:53 PM 27.0 °F 12.2 °F 15.1 °F 61% 30.19 in 10.0 mi NNW 24.2 mph 33.4 mph N/A   Clear
1:53 PM 30.0 °F 16.0 °F 18.0 °F 61% 30.17 in 10.0 mi NW 25.3 mph 31.1 mph N/A   Scattered Clouds
2:53 PM 30.0 °F 17.2 °F 17.1 °F 59% 30.15 in 10.0 mi NW 20.7 mph 33.4 mph N/A   Overcast
3:53 PM 30.9 °F 17.5 °F 17.1 °F 57% 30.15 in 10.0 mi NNW 24.2 mph 32.2 mph N/A   Overcast
4:53 PM 30.9 °F 16.4 °F 17.1 °F 57% 30.15 in 10.0 mi NW 28.8 mph 35.7 mph N/A   Overcast
5:53 PM 30.0 °F 16.9 °F 18.0 °F 61% 30.16 in 10.0 mi North 21.9 mph 34.5 mph N/A   Overcast
6:53 PM 28.4 °F 15.4 °F 17.6 °F 64% 30.10 in 10.0 mi NNW 19.6 mph 32.2 mph N/A   Scattered Clouds
7:53 PM 26.1 °F 12.0 °F 17.1 °F 69% 30.19 in 9.0 mi NNW 20.7 mph 28.8 mph 0.00 in   Mostly Cloudy
8:53 PM 24.1 °F 12.0 °F 17.1 °F 75% 30.22 in 10.0 mi NNW 13.8 mph - 0.00 in   Partly Cloudy
9:53 PM 23.0 °F 10.1 °F 15.1 °F 72% 30.23 in 10.0 mi NNW 15.0 mph - N/A   Clear
10:53 PM 24.1 °F 10.1 °F 17.1 °F 75% 30.24 in 10.0 mi NNW 18.4 mph - N/A   Overcast
11:53 PM 23.0 °F 8.3 °F 17.1 °F 78% 30.24 in 10.0 mi NNW 19.6 mph 27.6 mph N/A   Mostly Cloudy